Starlink 30328

operational
NORAD ID: 57638 Int'l Des: 2023-122 Owner: SPXS Country: US Constellation: starlink
LEOCIRCULAR

Starlink 30328について

説明を読み込み中...

リアルタイム位置

3D地球を読み込み中...

次回通過

高度履歴

Altitude vs Time

uPlot chart will show altitude changes over time

軌道要素

1 57638U 23122G 25351.89630139 -.00000492 00000-0 -21362-4 0 9999
2 57638 43.0025 165.8033 0001174 260.3053 99.7656 15.02536186130040
Epoch: Dec 17, 2025 • Age: 12 hours

現在のステータス

高度 558.8 km
速度 7.59 km/s
衛星直下点 20.27°N, 92.55°E
打ち上げ日 Aug 17, 2023
運用期間 2.3 years
タイプ internet

技術仕様

分類 Payload
質量 730.00 kg
乾燥質量 700.00 kg
総質量 730.00 kg
長さ 0.30 m
直径 4.10 m
スパン 29.00 m
形状 Box + pan
製造者 SPXS
バスタイプ Starlink V2M
フェーズステータス In Orbit
所有者/国 SPXS/US

大規模コンステレーション

Loading constellations...